Voltar ao catálogo

STARLINK-31473

AtivoComunicaçõesVLEO
NORAD 59339·PAYLOAD·🇺🇸 United States

Lançado Mar 25, 2024 de Cape Canaveral Space Force Station

Loading…

Próximas Passagens (próximas 24 horas)

TLE

AtualizadoSource: CelesTrak SupGP

Época: Sep 14, 2026, 22:27 UTC

1 59339C 24057V   26257.93590278 -.00007913  00000+0 -28658-3 0  2572
2 59339  43.0003 198.1748 0001008 262.7111  87.5031 15.27587871    14

Acompanhe STARLINK-31473 em tempo real com AllMySat

Download on the App Store